Welcome to the New NWS' Forecast!
Most changes are behind the scenes, but click here for differences you might notice.

Regional Weather Roundup (RWR)

Issued by Gray - Portland, ME (GYX)

                            
048 
ASUS41 KGYX 231410
RWRGYX
WEATHER ROUNDUP FOR MAINE AND NEW HAMPSHIRE
NATIONAL WEATHER SERVICE GRAY ME
900 AM EST TUE JAN 23 2018

MEZ002-005-006-010-012-015-018-020-021-024-026-027-029-231500-
MAINE
  
CITY           SKY/WX    TMP DP  RH WIND       PRES   REMARKS
PORTLAND       FRZ DRZL  25  25 100 N7        29.93F                  
SANFORD        MIX PCPN  24  23  96 N12       29.91F FOG     WCI  13  
BAR HARBOR     RAIN      36  36 100 S8G17     30.01F FOG              
WISCASSET      MIX PCPN  26  26 100 CALM      29.95F FOG              
ROCKLAND       LGT RAIN  35  35 100 NE7       29.95F VSB 1/4          
FRYEBURG       CLOUDY    24  24 100 CALM      29.94F FOG              
LEWISTONAUBURN CLOUDY    21  20  96 N9        29.94F FOG              
AUGUSTA        MIX PCPN  22  21  96 N9        29.96F VSB 1            
WATERVILLE     LGT SNOW  21  19  92 N9        29.93F FOG              
BANGOR         FRZ DRZL  23  22  96 N6        30.00F FOG              
GREENVILLE       N/A     20  19  96 E16G22    29.87F WCI   6          
MILLINOCKET    MIX PCPN  16  13  88 N5        30.06F VSB 3/4          
HOULTON        MIX PCPN  17  13  84 VRB5      30.07F VSB 1/2          
PRESQUE ISLE   SNOW      15  12  88 E7        30.09F VSB 1/2          
FRENCHVILLE    SNOW       9   5  84 E13G22    30.04F VSB 1/2 WCI  -7  
CARIBOU        SNOW      15  10  80 E7        30.07F VSB 1/2          
$$

NHZ002-005-008-009-011-012-014-231500-
NEW HAMPSHIRE
  
CITY           SKY/WX    TMP DP  RH WIND       PRES   REMARKS
PORTSMOUTH     FRZ DRZL  25  24  95 VRB3      29.89F VSB 3/4          
ROCHESTER      CLOUDY    25  25 100 N7        29.89F FOG              
NASHUA         FRZ RAIN  28  27  96 N3        29.90F VSB 3/4          
MANCHESTER     FRZ DRZL  28  27  96 NE5       29.88F VSB 3/4          
CONCORD        FOG       28  25  88 NE5       29.90F VSB 1            
LACONIA        LGT SNOW  27  25  93 NE8       29.89F FOG              
PLYMOUTH       MIX PCPN  28  28  96 CALM      29.88F                  
BERLIN         MIX PCPN  29  27  92 NW3       29.84F                  
WHITEFIELD     LGT RAIN  35  35 100 VRB3      29.77F                  
JAFFREY        FRZ RAIN  29  29 100 N5        29.82F VSB 1            
KEENE          LGT SNOW  32  30  93 W5        29.83S FOG              
LEBANON        FRZ RAIN  32  30  92 W3        29.80F FOG              
MT WASHINGTON  FOG       30  30 100 S51G61      N/A  VSB 0   WCI  12  
$$

VTZ005-007-008-231500-
VERMONT
  
CITY           SKY/WX    TMP DP  RH WIND       PRES   REMARKS
ST JOHNSBURY     N/A     33  33 100 MISG      29.76F                  
MONTPELIER     MIX PCPN  33  32  96 S9G17     29.78S FOG              
BURLINGTON     CLOUDY    38  33  82 CALM      29.67F                  
$$

MAZ007-012-024-CTZ003-RIZ002-NYZ038-NYZ072-231500-
SOUTHERN NEW ENGLAND AND NY
  
CITY           SKY/WX    TMP DP  RH WIND       PRES   REMARKS
BOSTON         FOG       33  33 100 N3        29.89F VSB 1/4          
WORCESTER      FRZ RAIN  29  27  92 NE8       29.81F VSB<1/4          
NANTUCKET      FOG       46  46 100 S20       29.93F VSB 1/2          
PROVIDENCE     RAIN      40  40 100 NW5       29.88F VSB 1/4          
HARTFORD       RAIN      34  34 100 N7        29.78F FOG              
ALBANY         LGT RAIN  42  39  89 S14       29.70F FOG              
NEW YORK CITY  LGT RAIN  50  49  96 S16       29.72F VSB 3/4          
$$

ANZ081-ANZ082-ANZ150-NHZ014-MEZ023>029-231500-
COASTAL MARINE OBSERVATIONS
  
STATION/POSITION TIME  TEMP    WIND        PRES    WAVE
                       AIR SEA DIR/SP/G            HT/PER
                 (UTC) (F)     (DEG/KT/KT) (MB)    (FT/S)
MOUNT DESERT ROC 1400   46     110/ 24/ 25 1015.1F
MATINICUS ROCK   1300   44     140/ 14/ 14 1014.8F
ISLE OF SHOALS   1300   28      20/  2/  2 1013.5F
JEFFREYS LEDGE   1336      43                N/A     7/ 7
GEORGES BANK BUO 1250   46 52              1026.4    5/ 5
$$

.............KEY..............
   WCI - WIND CHILL
   TC  - TEMPERATURE IN CELSIUS
   VSB - VISIBILITY IN MILES
   HX  - HEAT INDEX
   FAIR- INDICATES FEW OR NO CLOUDS BELOW 12,000 FT, WITH NO 
         SIGNIFICANT WEATHER AND/OR OBSTRUCTIONS TO VISIBILITY.